Date,TemperatureHighF,TemperatureAvgF,TemperatureLowF,DewpointHighF,DewpointAvgF,DewpointLowF,HumidityHigh,HumidityAvg,HumidityLow,PressureMaxIn,PressureMinIn,WindSpeedMaxMPH,WindSpeedAvgMPH,GustSpeedMaxMPH,PrecipitationSumIn
2013-2-1,0,-7,-18,-4,-13,-22,92,74,59,30.36,30.12,7,2,11,0.00
2013-2-2,9,3,-4,4,-2,-8,86,78,64,30.22,30.00,6,1,10,0.00
2013-2-3,11,8,0,3,1,-4,92,75,67,30.09,30.00,8,4,14,0.00
2013-2-4,13,7,-2,9,-2,-9,87,66,55,30.10,29.72,6,2,10,0.00
2013-2-5,25,18,1,21,12,-2,89,78,56,30.08,29.63,6,3,12,0.00
2013-2-6,22,14,1,18,10,-3,97,87,84,30.10,29.95,10,4,15,0.00
2013-2-7,27,24,21,23,20,18,93,87,76,30.26,30.02,11,6,16,0.00
2013-2-8,24,17,5,18,11,2,91,79,63,30.38,30.20,13,4,20,0.00
2013-2-9,30,27,18,28,24,14,95,88,83,30.20,29.90,12,6,19,0.00
2013-2-10,29,27,25,28,26,23,100,94,91,29.91,29.29,16,8,22,0.00
2013-2-11,29,23,12,28,19,9,96,87,81,30.02,29.32,13,8,20,0.00
2013-2-12,32,21,8,24,16,5,91,82,67,30.02,29.76,7,2,11,0.06
2013-2-13,38,28,20,31,23,17,95,84,66,29.77,29.56,6,2,9,0.02
2013-2-14,30,23,12,29,14,1,95,72,37,30.16,29.59,8,4,13,0.14
2013-2-15,16,8,1,4,0,-4,83,70,55,30.32,30.16,9,4,13,0.00
2013-2-16,17,7,-1,6,0,-5,92,75,56,30.27,30.13,6,1,9,0.00
2013-2-17,29,22,-1,20,15,-4,85,74,65,30.13,29.61,18,10,25,0.00
2013-2-18,31,22,8,27,16,1,92,79,71,29.81,29.48,13,7,25,0.00
2013-2-19,10,4,0,1,-5,-9,76,65,52,30.40,29.81,13,6,24,0.00
2013-2-20,14,3,-8,1,-5,-12,82,69,54,30.51,30.40,8,2,10,0.00
2013-2-21,22,11,-5,16,4,-8,92,75,59,30.52,30.12,12,4,16,0.00
2013-2-22,26,22,19,22,19,16,91,88,83,30.12,29.85,12,7,18,0.01
2013-2-23,28,27,19,22,21,15,87,76,74,29.94,29.84,4,2,6,0.00
2013-2-24,35,20,6,24,15,3,94,80,60,30.09,29.93,6,1,8,0.00
2013-2-25,36,22,9,24,16,-100,92,81,60,30.11,30.03,5,1,6,0.00
2013-2-26,37,24,11,27,19,9,94,83,65,30.07,29.89,9,4,14,0.00
2013-2-27,40,31,24,26,24,21,88,76,53,30.02,29.86,12,5,18,0.00
2013-2-28,30,27,20,22,19,13,76,71,64,30.24,30.02,10,5,14,0.00